Jefferson City, MO

8:24 AM CDT on June 28, 2017 (GMT -0500)
Jefferson City Memorial

Weather History for KJEF - October, 2013

Change the Weather History Date:

Monday, October 7, 2013

  Actual Average Record
Temperature  
Mean Temperature 58 °F -  
Max Temperature 71 °F 71 °F 96 °F (1939)
Min Temperature 48 °F 43 °F 22 °F (1952)
Degree Days  
Heating Degree Days 6    
Growing Degree Days 8 (Base 50)    
Moisture  
Dew Point 45 °F    
Average Humidity 70    
Maximum Humidity 93    
Minimum Humidity 38    
Precipitation  
Precipitation 0.00 in - - ()
Sea Level Pressure  
Sea Level Pressure 30.07 in    
Wind  
Wind Speed 6 mph (WNW)    
Max Wind Speed 10 mph    
Max Gust Speed -    
Visibility 9 miles    
Events      
Averages and records for this station are not official NWS values.
T = Trace of Precipitation, MM = Missing Value Source: NWS Daily Summary

Daily Weather History Graph

Daily Weather History Graph

Search for Another Location

Airport or City:

Trip Planner

Search our weather history database for the weather conditions in past years. The results will help you decide how hot, cold, wet, or windy it might be!

Date:

Astronomy

Oct. 07, 2013 Rise Set
Actual Time 7:10 AM CDT 6:41 PM CDT
Civil Twilight 6:43 AM CDT 7:08 PM CDT
Nautical Twilight 6:13 AM CDT 7:38 PM CDT
Astronomical Twilight 5:42 AM CDT 8:09 PM CDT
Moon 9:58 AM CDT (10/7) 8:29 PM CDT (10/7)
Length of Visible Light 12h 24m
Length of Day
11h 31m
Waxing Crescent, 9% of the Moon is Illuminated
Oct 7
Waxing Crescent
Oct 11
First Quarter
Oct 18
Full
Oct 26
Last Quarter
Nov 3
New

Hourly Weather History & Observations

Time (CDT) Temp. Dew Point Humidity Pressure Visibility Wind Dir Wind Speed Gust Speed Precip Events Conditions
12:53 AM 52.0 °F 43.0 °F 71% 29.94 in 10.0 mi WNW 10.4 mph - N/A   Overcast
1:53 AM 52.0 °F 43.0 °F 71% 29.95 in 10.0 mi NW 9.2 mph - N/A   Overcast
2:53 AM 51.1 °F 43.0 °F 74% 29.95 in 10.0 mi WNW 6.9 mph - N/A   Overcast
3:53 AM 51.1 °F 43.0 °F 74% 29.96 in 10.0 mi NW 4.6 mph - N/A   Overcast
4:53 AM 51.1 °F 44.1 °F 77% 29.98 in 10.0 mi NW 3.5 mph - N/A   Overcast
5:53 AM 51.1 °F 44.1 °F 77% 30.00 in 10.0 mi WNW 4.6 mph - N/A   Overcast
6:53 AM 51.1 °F 45.0 °F 80% 30.02 in 10.0 mi West 3.5 mph - N/A   Overcast
7:53 AM 51.1 °F 45.0 °F 80% 30.05 in 10.0 mi West 9.2 mph - N/A   Overcast
8:12 AM 51.8 °F 44.6 °F 76% 30.09 in - WNW 6.9 mph - N/A   Overcast
8:19 AM 51.8 °F 44.6 °F 76% 30.09 in 1.5 mi West 8.1 mph - N/A   Overcast
8:27 AM 51.8 °F 44.6 °F 76% 30.09 in 10.0 mi WNW 8.1 mph - N/A   Overcast
8:53 AM 50.0 °F 45.0 °F 83% 30.08 in 6.0 mi WNW 8.1 mph - N/A   Mostly Cloudy
9:02 AM 51.8 °F 44.6 °F 76% 30.11 in 10.0 mi WNW 8.1 mph - N/A   Scattered Clouds
9:53 AM 54.0 °F 45.0 °F 72% 30.09 in 10.0 mi West 9.2 mph - N/A   Clear
10:53 AM 57.0 °F 45.0 °F 64% 30.10 in 10.0 mi Calm Calm - N/A   Clear
11:53 AM 63.0 °F 45.0 °F 52% 30.11 in 10.0 mi NNW 8.1 mph - N/A   Clear
12:53 PM 64.0 °F 44.1 °F 48% 30.09 in 10.0 mi WNW 8.1 mph - N/A   Clear
1:53 PM 66.9 °F 43.0 °F 42% 30.07 in 10.0 mi West 5.8 mph - N/A   Clear
2:53 PM 69.1 °F 44.1 °F 40% 30.07 in 10.0 mi West 4.6 mph - N/A   Clear
3:53 PM 69.1 °F 42.1 °F 38% 30.06 in 6.0 mi Variable 3.5 mph - N/A   Haze
4:53 PM 69.1 °F 42.1 °F 38% 30.06 in 10.0 mi WSW 3.5 mph - N/A   Clear
5:53 PM 69.1 °F 43.0 °F 39% 30.06 in 10.0 mi Calm Calm - N/A   Clear
6:53 PM 63.0 °F 46.9 °F 56% 30.06 in 10.0 mi Calm Calm - N/A   Clear
7:53 PM 57.0 °F 48.0 °F 72% 30.08 in 10.0 mi Calm Calm - N/A   Clear
8:53 PM 54.0 °F 46.9 °F 77% 30.10 in 10.0 mi Calm Calm - N/A   Clear
9:53 PM 52.0 °F 48.0 °F 86% 30.11 in 10.0 mi Calm Calm - N/A   Clear
10:13 PM 50.0 °F 46.4 °F 87% 30.14 in 1.8 mi Calm Calm - N/A   Clear
10:21 PM 50.0 °F 46.4 °F 87% 30.14 in 4.0 mi Calm Calm - N/A   Clear
10:53 PM 50.0 °F 46.9 °F 89% 30.11 in 10.0 mi Calm Calm - N/A   Clear
11:32 PM 48.2 °F 46.4 °F 93% 30.14 in 2.0 mi Calm Calm - N/A   Clear
11:42 PM 50.0 °F 46.4 °F 87% 30.14 in 10.0 mi Calm Calm - N/A   Clear
11:53 PM 48.9 °F 46.0 °F 90% 30.12 in 10.0 mi Calm Calm - N/A   Clear